Location: Gorenice
(50.2072°N, 19.6206°E)
Time: 18:08:57
(UTC+01:00)

ISS - Visible Passes

Search period start: 16 January 2019 00:00
Search period end: 26 January 2019 00:00
Orbit: 404 x 407 km, 51.6° (Epoch: 17 January)

Date Brightness Start Highest point End Pass type
(mag) Time Alt. Az. Time Alt. Az. Time Alt. Az.
23 Jan -1.7 18:36:41 10° SSW 18:38:06 20° S 18:38:06 20° S visible
24 Jan -2.0 17:45:26 10° S 17:47:46 18° SE 17:48:29 17° ESE visible
24 Jan -0.8 19:20:35 10° WSW 19:21:11 14° WSW 19:21:11 14° WSW visible
25 Jan -1.4 16:54:54 10° SSE 16:56:03 11° SE 16:57:11 10° ESE visible
25 Jan -3.2 18:28:44 10° SW 18:31:29 45° S 18:31:29 45° S visible
